Regional Weather Roundup
Issued by NWS

Home | Current Version | Previous Version | Graphics & Text | Print | Product List | Glossary Off
Versions: 1 2 3 4 5 6 7 8 9 10 11 12 13 14 15 16 17 18 19 20 21 22 23 24 25 26 27 28 29 30 31 32 33 34 35 36 37 38 39 40 41 42 43 44 45 46 47 48 49 50

000
ASUS43 KDMX 281307
RWRIA

WEATHER ROUNDUP FOR IOWA
NATIONAL WEATHER SERVICE DES MOINES IA
800 AM CDT THU AUG 28 2014

NOTE: "FAIR" INDICATES FEW OR NO CLOUDS BELOW 12,000 FEET WITH NO
SIGNIFICANT WEATHER AND/OR OBSTRUCTIONS TO VISIBILITY.

* - THESE STATIONS ARE NOT NWS STATIONS...THUS NOT UNDER NWS
QUALITY CONTROL.  THEY ALSO DO NOT REPORT WEATHER SUCH
AS PRECIPITATION OR FOG.

IAZ001>003-012>014-020>022-031>034-043>046-281400-
   NORTHWEST IOWA

CITY           SKY/WX    TMP DP  RH WIND       PRES   REMARKS
CARROLL *      LGT RAIN  68  68 100 SE7       30.01S
DENISON *      LGT RAIN  68  68 100 E13G21    29.97F
LE MARS *      LGT RAIN  68  68 100 SE8       29.96F
ORANGE CITY *  HVY RAIN  70  66  88 SE5       29.98F
SHELDON *      HVY RAIN  66  66 100 SE9       29.99S VSB 1
SIOUX CITY     CLOUDY    68  67  96 E6        29.94F
SPENCER        RAIN      65  63  93 SE14      30.01F FOG
STORM LAKE *   LGT RAIN  66  66 100 SE9       30.01S
$$

IAZ055>058-069>071-079>083-090>094-281400-
   SOUTHWEST IOWA

CITY           SKY/WX    TMP DP  RH WIND       PRES   REMARKS
ATLANTIC *     HVY RAIN  70  68  94 E9        29.97F
AUDUBON *      RAIN      72  70  94 SE7       30.01F
CLARINDA *     PTSUNNY   70  70 100 E7        30.00F
COUNCIL BLFS * CLOUDY    68  68 100 VRB8G18   29.96R
CRESTON *      CLOUDY    68  68 100 E6G13     30.00S FOG
HARLAN  *      LGT RAIN  68  68 100 SE10G18   30.00F
LAMONI         CLOUDY    70  68  93 E6        30.00F
RED OAK *      CLOUDY    70  70 100 CALM      29.99R
SHENANDOAH *   RAIN      70  70 100 CALM      30.00R
$$

IAZ047>049-059>061-072>074-084-281400-
   CENTRAL IOWA

CITY           SKY/WX    TMP DP  RH WIND       PRES   REMARKS
AMES           LGT RAIN  65  65 100 E3        30.04S
ANKENY *       LGT RAIN  66  64  94 E8        30.02F
CHARITON *     LGT RAIN  68  68 100 E9        30.02F
DES MOINES     LGT RAIN  67  65  93 E10       30.01F FOG
GRINNELL*      LGT RAIN  64  63  94 E3        30.07R
KNOXVILLE *    LGT RAIN  68  66  94 E6        30.03F
MARSHALLTOWN   LGT RAIN  65  63  93 E6        30.06S
PELLA *        RAIN      66  64  94 CALM      30.06S
PERRY *        HVY RAIN  66  66 100 CALM      30.04R
$$

IAZ004>006-015-016-023>025-035-036-281400-
   NORTH CENTRAL IOWA

CITY           SKY/WX    TMP DP  RH WIND       PRES   REMARKS
ALGONA *       LGT RAIN  64  63  94 SE9G15    30.05S
CLARION *      LGT RAIN  64  64 100 SE9G15    30.06S
ESTHERVILLE    LGT RAIN  63  62  97 SE10      30.04S FOG
FORT DODGE *   CLOUDY    64  63  94 SE7       30.04F
MASON CITY     LGT RAIN  63  61  93 SE6       30.09R
FOREST CITY *  LGT RAIN  63  63 100 SE7       30.07R
IOWA FALLS *   RAIN      64  63  94 CALM      30.08S
$$

IAZ007>011-017>019-026>030-037>042-050>054-066-281400-
   NORTHEAST IOWA

CITY           SKY/WX    TMP DP  RH WIND       PRES   REMARKS
CEDAR RAPIDS   CLOUDY    66  61  84 SE9       30.07S
CHARLES CITY * CLOUDY    64  63  94 SE9       30.09S
CLINTON *      PTSUNNY   64  61  88 E9        30.13R
DECORAH *      SUNNY     63  61  94 VRB5      30.11R
DUBUQUE        PTSUNNY   64  62  93 SE8       30.11S
MONTICELLO *   MOSUNNY   66  63  88 SE8       30.10R
OELWEIN *      PTSUNNY   64  61  88 SE12      30.10S
WATERLOO       CLOUDY    66  62  87 SE8       30.07R
$$

IAZ064-065-067-068-078-281400-
   EAST CENTRAL IOWA

CITY           SKY/WX    TMP DP  RH WIND       PRES   REMARKS
DAVENPORT      CLOUDY    67  61  81 SE13      30.10R
IOWA CITY      CLOUDY    67  61  81 E8        30.08S
MT. PLEASANT * CLOUDY    68  64  88 E8        30.06S
MUSCATINE *    CLOUDY    68  59  73 SE8       30.08S
QUAD CITIES    PTSUNNY   67  61  81 E12       30.09S
$$

IAZ062-063-075>077-085>089-095>099-281400-
   SOUTHEAST IOWA

CITY           SKY/WX    TMP DP  RH WIND       PRES   REMARKS
BURLINGTON     CLOUDY    68  60  75 E9        30.06F
FAIRFIELD *    CLOUDY    68  64  88 E9        30.05S
FORT MADISON * CLOUDY    72  68  88 E8        30.06F
KEOKUK *       PTSUNNY   72  70  94 E13       30.04F
OSKALOOSA *    CLOUDY    68  66  94 E9        30.05S
CENTERVILLE *  RAIN      68  68 100 CALM      30.06R
OTTUMWA        CLOUDY    68  65  90 E8        30.03F
WASHINGTON *   CLOUDY    68  63  83 E12       30.06S
$$

ABBREVIATIONS USED IN REMARKS
   TC - TEMPERATURES IN CELSIUS
  WCI - WIND CHILL INDEX
   HX - HEAT INDEX
  VSB - VISIBILITY
$$



USA.gov is the U.S. government's official web portal to all federal, state and local government web resources and services.